Wind_Speed
13 9 10 7 5 6 11 10 9 6 5 3 3 7 10 8 5 2 4 2 3 5 8 10 9 18 15 12 12 11 8 6 4 4 7 10 9 8 6 4 7 7 7 6
12 13 11 9 7 6 7 7 8 9 4 2 1 11 16 13 8 3 4 2 2 1 6 7 8 15 14 11 13 12 9 8 6 7 8 9 10 7 6 4 5 8 6 9
14 13 11 10 10 6 7 9 8 8 7 4 4 1 10 10 10 3 4 8 4 7 11 13 11 9 11 14 14 13 11 11 8 6 7 9 11 10 7 6 6 8 6 5
17 13 13 11 11 7 7 9 10 9 8 5 7 7 2 11 14 7 7 9 3 4 9 13 13 10 9 9 11 10 10 11 11 9 5 7 9 11 10 9 6 8 9 6
16 15 13 12 12 10 10 8 9 11 10 4 8 6 10 3 5 4 7 7 8 5 17 14 12 9 8 12 13 7 11 11 11 10 6 5 7 8 8 10 9 8 11 11
22 18 16 16 13 12 11 12 13 14 14 9 12 9 12 11 3 4 4 6 8 12 15 13 8 8 5 8 14 5 9 11 11 10 7 4 7 6 7 8 10 11 10 12
23 20 17 18 16 16 16 15 18 16 16 14 16 14 11 10 10 8 9 8 11 14 14 13 13 13 8 10 13 9 11 13 11 11 7 4 4 7 9 10 11 12 10 11
25 23 20 18 19 21 20 20 20 21 19 17 18 17 13 12 13 12 14 15 16 13 8 12 18 19 15 10 9 10 11 11 10 7 6 6 7 8 8 10 11 11 11 11
25 24 22 21 24 25 23 24 22 23 25 23 22 23 17 17 14 15 12 9 10 3 9 14 17 18 22 13 9 8 9 9 6 6 6 7 8 9 9 9 10 10 11 11
27 26 28 26 27 29 27 27 26 26 26 24 25 23 19 20 17 15 12 12 11 6 8 13 15 18 22 20 14 12 11 11 9 8 9 9 11 12 11 11 10 11 12 13
32 31 30 30 31 30 30 31 30 28 27 25 27 26 21 22 17 10 9 9 9 4 6 12 19 21 20 17 11 9 10 11 9 8 8 10 13 15 13 12 12 11 14 14
32 33 32 32 32 33 34 35 34 32 26 24 26 21 20 17 15 5 10 11 12 9 10 13 15 15 15 9 2 4 7 8 10 10 10 10 11 13 12 11 11 11 12 13
35 36 32 32 33 32 35 36 36 33 26 25 24 15 14 13 10 9 10 8 8 8 16 18 13 10 8 7 4 7 9 11 12 14 16 14 12 13 13 13 13 12 13 13
28 30 32 31 26 28 32 33 36 34 27 20 17 10 6 4 9 12 15 14 12 11 14 13 9 8 5 2 2 11 11 11 12 14 16 18 18 18 15 13 13 16 18 20
24 24 29 29 24 29 32 31 34 32 25 26 19 11 6 12 15 12 10 8 10 16 17 11 14 10 6 4 12 19 21 21 21 19 19 21 19 20 17 17 15 16 18 21
23 20 25 24 24 33 34 34 30 30 25 28 24 18 12 12 13 10 14 15 6 12 18 15 15 17 9 11 15 16 21 22 21 19 19 21 23 23 22 21 17 20 21 29
22 22 22 20 23 29 36 38 29 29 27 22 24 19 20 17 19 5 5 10 11 10 17 20 20 24 16 16 20 22 23 24 26 23 20 24 24 24 25 26 21 23 22 33
16 19 19 21 17 21 27 33 38 29 20 22 20 17 18 19 16 7 9 6 7 8 9 12 13 10 15 20 23 25 27 29 29 27 24 24 26 25 25 27 25 25 25 27
26 24 24 25 24 23 21 29 37 32 24 22 21 18 15 11 14 11 13 11 10 15 13 11 12 12 18 20 25 28 29 30 29 27 29 27 25 26 29 30 31 31 30 32
33 32 31 31 31 27 27 25 27 27 32 23 21 23 23 17 16 18 16 16 17 17 17 16 17 18 21 23 27 30 31 29 28 27 28 30 31 27 27 30 33 34 37 40
38 35 33 34 35 30 27 28 26 28 29 31 29 28 28 29 28 18 20 22 24 24 23 24 23 22 24 27 29 34 35 33 30 28 30 30 31 32 28 30 31 33 35 39
44 39 36 35 39 36 29 30 31 28 28 30 30 25 25 26 28 28 28 30 28 30 31 30 29 29 29 31 34 37 35 34 31 30 30 30 29 28 29 29 31 32 33 35
43 39 39 38 37 31 26 24 25 25 24 22 22 24 25 28 31 37 49 36 29 30 30 33 35 39 36 36 38 37 35 32 30 29 28 31 32 30 29 29 31 33 33 35
41 45 41 37 36 32 32 31 28 25 28 29 27 26 28 30 32 34 36 33 31 40 44 37 34 36 39 43 41 37 33 32 30 29 30 30 30 34 34 34 33 34 35 34
40 42 40 38 36 33 32 30 28 27 25 24 26 29 30 29 29 32 36 35 31 26 33 35 39 40 39 40 42 42 38 36 35 34 32 32 32 34 35 36 38 38 37 34
40 44 44 39 39 35 31 29 31 33 31 29 26 27 33 38 37 41 38 41 35 38 42 43 43 42 39 40 42 40 37 37 39 40 42 43 42 40 39 39 37 37 37 36
Wind_Direction
174 173 155 162 114 146 127 116 122 116 111 98 148 166 177 167 91 51 203 263 15 19 23 30 32 351 23 23 19 21 21 11 340 334 335 330 338 335 333 314 293 284 230 237
181 203 177 194 191 206 186 167 143 142 155 89 246 126 170 170 151 193 302 277 190 298 22 20 8 350 359 2 359 355 4 6 357 331 333 320 325 335 339 336 292 284 262 243
192 210 206 208 238 195 216 225 191 189 187 172 316 311 136 163 127 108 309 296 282 0 341 337 338 353 324 357 353 350 354 359 351 335 324 318 313 319 323 322 308 298 303 281
210 208 204 210 220 226 253 252 247 246 242 214 249 269 231 142 161 160 188 197 198 330 297 306 309 311 323 335 343 342 357 351 342 327 316 317 313 307 316 324 322 311 310 299
227 227 214 216 232 243 271 280 272 287 289 280 273 264 282 191 194 198 189 222 244 308 336 327 315 295 309 254 298 334 347 360 346 336 313 315 329 322 320 321 324 315 312 314
221 225 223 235 241 244 265 277 276 281 286 298 279 278 286 291 207 207 212 270 308 323 337 332 314 306 305 271 269 342 351 0 358 344 320 314 328 324 317 313 314 314 315 308
237 237 231 234 240 247 256 262 272 275 273 277 282 286 279 285 298 312 292 270 307 345 333 329 343 337 321 313 328 345 6 7 357 355 341 323 332 324 317 310 310 305 312 316
234 240 238 234 238 241 248 255 264 274 272 271 273 275 270 279 278 264 287 302 311 303 313 313 333 337 316 304 317 349 354 357 4 18 18 348 330 323 326 322 324 313 307 309
231 239 243 236 238 249 251 255 257 263 268 272 277 278 278 280 276 271 275 306 346 304 255 295 312 316 310 297 308 315 329 323 338 1 351 348 323 317 324 328 330 325 315 312
233 231 241 240 245 253 254 257 255 259 264 270 271 274 278 270 268 273 280 275 294 275 217 265 276 299 310 289 291 298 307 313 321 330 321 322 321 315 308 308 316 322 313 305
235 236 240 243 248 251 254 252 253 255 258 270 274 282 283 273 278 277 276 269 240 242 267 272 262 274 293 282 290 305 314 315 323 330 325 320 316 308 305 309 312 312 310 295
239 243 240 243 246 246 243 245 247 252 259 260 271 283 294 291 291 290 244 260 272 254 259 277 250 272 275 249 304 310 313 332 334 327 341 333 315 300 305 311 308 303 307 293
247 249 241 242 243 245 246 242 245 248 245 252 270 280 291 296 291 265 262 232 241 234 259 259 253 259 243 238 267 304 318 319 321 326 330 335 334 322 308 295 300 300 298 285
242 235 236 241 243 245 241 236 241 248 240 249 253 262 299 257 283 259 253 245 292 253 240 233 238 198 177 171 348 344 324 313 311 318 315 317 323 323 307 290 297 301 295 289
242 243 237 235 230 225 228 231 238 245 248 235 238 230 210 225 235 272 265 265 265 227 229 208 234 234 233 235 305 325 333 336 334 327 314 304 305 308 312 290 276 280 286 287
238 242 232 221 217 214 220 221 235 246 245 236 240 224 233 250 271 287 252 248 265 238 216 224 258 224 236 272 313 326 330 328 331 324 304 299 293 295 297 301 294 286 296 286
234 237 220 203 206 208 219 222 230 243 253 243 230 236 247 253 275 252 260 237 237 243 228 237 250 267 255 293 306 316 324 329 327 314 305 293 288 290 293 296 303 292 298 293
228 225 220 207 205 216 217 224 231 237 239 247 236 243 243 262 255 249 285 288 247 214 225 254 248 254 291 308 316 317 323 326 324 315 311 303 294 288 285 288 294 299 297 292
231 225 236 233 218 222 227 243 236 225 227 231 232 246 257 254 252 246 260 285 257 264 271 270 276 284 304 313 316 319 318 318 318 314 313 307 304 293 290 282 282 286 289 274
232 238 243 237 232 231 233 244 257 250 235 234 241 244 255 264 246 255 254 270 270 248 257 267 275 284 299 305 308 311 314 312 309 306 303 301 300 300 291 287 286 284 288 300
236 242 245 239 233 247 259 248 250 255 249 246 248 252 254 260 266 253 250 254 259 255 262 265 273 280 286 289 295 306 312 310 304 298 294 296 293 293 296 295 291 290 290 294
239 234 235 233 238 248 249 252 251 259 252 243 243 246 256 263 263 247 244 234 238 250 261 266 273 275 280 288 293 298 302 302 298 294 293 294 296 296 299 299 298 294 294 298
222 226 233 237 245 249 249 254 260 255 249 242 243 247 248 252 257 258 277 226 234 253 259 256 272 275 270 282 290 293 298 296 294 292 290 291 296 298 298 298 298 298 298 299
225 225 232 234 240 247 252 255 249 242 247 250 252 253 257 258 264 271 278 272 282 272 259 265 281 291 282 284 290 293 295 292 288 288 289 290 290 295 299 299 299 299 301 306
226 226 226 231 235 241 249 246 243 241 241 247 250 256 261 264 264 262 265 272 278 287 284 281 281 284 286 285 284 287 289 290 292 293 291 290 291 292 291 291 296 298 301 305
225 225 226 228 232 236 237 243 247 242 247 248 250 252 261 266 268 272 266 272 276 279 282 284 285 282 284 282 283 283 285 289 292 293 295 296 296 295 293 294 293 291 294 298
Height
5939 5941 5940 5942 5945 5945 5946 5946 5946 5948 5948 5949 5950 5951 5952 5952 5951 5949 5948 5947 5946 5945 5944 5944 5943 5940 5936 5937 5935 5934 5934 5935 5934 5934 5933 5932 5933 5933 5933 5934 5934 5935 5937 5937
5939 5940 5940 5941 5945 5946 5947 5947 5947 5948 5948 5949 5949 5952 5953 5952 5951 5950 5949 5947 5946 5945 5944 5944 5942 5942 5943 5940 5937 5935 5933 5933 5933 5933 5933 5932 5932 5933 5933 5933 5933 5933 5935 5936
5937 5939 5940 5942 5945 5947 5948 5948 5947 5947 5947 5948 5949 5950 5953 5953 5953 5953 5951 5950 5948 5947 5945 5944 5942 5941 5941 5939 5937 5936 5935 5932 5931 5931 5931 5932 5932 5931 5932 5933 5932 5932 5933 5934
5935 5937 5939 5942 5943 5944 5945 5946 5947 5946 5946 5948 5948 5949 5950 5952 5953 5953 5952 5951 5951 5950 5947 5944 5943 5940 5940 5940 5936 5936 5934 5932 5931 5930 5930 5930 5930 5930 5931 5931 5931 5931 5931 5932
5934 5935 5938 5939 5940 5943 5944 5946 5947 5946 5946 5947 5946 5947 5946 5948 5950 5951 5951 5950 5949 5948 5945 5942 5940 5940 5939 5931 5935 5935 5934 5931 5930 5929 5929 5929 5928 5928 5929 5930 5930 5930 5929 5928
5928 5932 5936 5937 5939 5941 5943 5944 5945 5945 5945 5946 5944 5946 5945 5945 5948 5949 5950 5948 5947 5946 5944 5942 5939 5939 5939 5936 5930 5928 5930 5930 5928 5929 5928 5927 5927 5927 5927 5927 5928 5928 5928 5926
5925 5929 5933 5935 5937 5938 5939 5941 5942 5944 5943 5944 5942 5944 5945 5945 5945 5946 5946 5947 5946 5945 5942 5940 5939 5940 5939 5935 5932 5931 5930 5926 5928 5928 5927 5927 5925 5926 5925 5925 5925 5925 5925 5925
5921 5925 5929 5932 5933 5934 5936 5938 5939 5939 5940 5941 5941 5941 5943 5943 5943 5943 5942 5941 5942 5943 5942 5940 5938 5938 5938 5935 5932 5931 5929 5929 5929 5928 5927 5926 5925 5925 5923 5923 5923 5923 5923 5923
5917 5920 5923 5926 5927 5929 5931 5933 5936 5936 5936 5937 5938 5938 5940 5940 5941 5941 5942 5941 5940 5940 5940 5939 5938 5935 5936 5935 5933 5932 5930 5929 5928 5927 5927 5925 5924 5923 5922 5921 5921 5921 5920 5920
5911 5914 5916 5920 5922 5923 5925 5927 5929 5931 5932 5933 5934 5935 5936 5936 5937 5937 5937 5938 5938 5937 5938 5938 5937 5935 5934 5933 5932 5930 5929 5928 5927 5925 5926 5924 5923 5922 5921 5919 5919 5919 5917 5917
5904 5907 5911 5913 5916 5919 5921 5921 5923 5926 5928 5929 5929 5931 5932 5932 5933 5935 5935 5934 5934 5935 5936 5936 5935 5934 5933 5931 5929 5928 5927 5926 5924 5923 5923 5922 5921 5920 5919 5917 5916 5916 5914 5913
5897 5900 5903 5907 5909 5912 5913 5915 5917 5920 5924 5925 5925 5928 5927 5927 5928 5930 5931 5932 5932 5932 5932 5933 5934 5933 5931 5929 5928 5927 5925 5924 5922 5921 5920 5920 5919 5920 5917 5914 5912 5912 5910 5908
5889 5893 5896 5899 5903 5905 5908 5910 5913 5916 5920 5921 5923 5926 5924 5924 5925 5926 5927 5930 5929 5927 5928 5929 5931 5930 5929 5928 5927 5926 5924 5923 5921 5920 5918 5917 5916 5915 5912 5912 5910 5907 5905 5904
5882 5887 5890 5893 5898 5901 5903 5906 5907 5910 5914 5918 5920 5921 5921 5922 5921 5921 5922 5924 5925 5924 5925 5924 5926 5927 5926 5926 5926 5925 5922 5920 5918 5916 5914 5913 5911 5909 5909 5907 5904 5903 5901 5900
5878 5883 5885 5887 5891 5894 5897 5900 5902 5905 5909 5913 5918 5918 5918 5917 5916 5917 5917 5919 5920 5920 5921 5921 5925 5926 5926 5925 5923 5921 5919 5916 5913 5911 5910 5907 5907 5906 5904 5902 5901 5899 5896 5895
5874 5879 5880 5882 5885 5887 5891 5895 5898 5901 5904 5908 5912 5914 5914 5913 5914 5914 5914 5915 5916 5917 5918 5919 5921 5922 5923 5922 5920 5918 5916 5913 5911 5908 5905 5902 5900 5900 5899 5897 5895 5890 5889 5884
5871 5873 5877 5879 5880 5882 5885 5890 5894 5896 5899 5903 5907 5909 5910 5911 5912 5912 5911 5911 5911 5913 5914 5915 5916 5916 5916 5916 5915 5913 5911 5908 5906 5904 5902 5899 5896 5896 5893 5891 5890 5886 5884 5876
5866 5870 5873 5875 5876 5877 5881 5885 5888 5892 5896 5899 5902 5904 5906 5907 5909 5909 5909 5909 5908 5909 5911 5912 5912 5912 5913 5910 5908 5907 5905 5903 5901 5899 5897 5894 5893 5892 5891 5889 5887 5882 5880 5876
5862 5865 5868 5870 5871 5873 5877 5879 5883 5887 5892 5895 5897 5900 5901 5903 5905 5906 5907 5907 5907 5906 5907 5908 5908 5908 5908 5905 5903 5901 5899 5898 5896 5894 5892 5891 5890 5889 5888 5885 5881 5876 5874 5865
5854 5859 5863 5864 5865 5868 5873 5875 5878 5881 5885 5890 5893 5895 5897 5899 5900 5902 5902 5902 5902 5903 5902 5902 5902 5902 5900 5899 5897 5896 5895 5892 5890 5889 5887 5885 5884 5883 5881 5878 5875 5872 5868 5868
5846 5851 5854 5857 5859 5863 5867 5870 5873 5874 5882 5884 5887 5889 5891 5893 5894 5895 5896 5897 5897 5896 5897 5895 5894 5893 5893 5892 5891 5889 5886 5885 5883 5882 5881 5879 5877 5875 5875 5872 5869 5866 5864 5861
5839 5844 5847 5851 5854 5857 5861 5864 5868 5871 5872 5877 5880 5883 5884 5885 5886 5886 5887 5885 5885 5887 5887 5887 5886 5885 5884 5885 5884 5882 5879 5878 5877 5875 5873 5871 5870 5869 5869 5866 5865 5861 5860 5857
5832 5836 5841 5846 5849 5853 5856 5859 5862 5864 5867 5870 5873 5874 5876 5877 5877 5878 5877 5873 5871 5877 5877 5877 5877 5877 5876 5875 5875 5873 5871 5870 5869 5867 5866 5864 5863 5863 5862 5860 5858 5856 5853 5852
5823 5828 5834 5840 5843 5846 5850 5853 5855 5858 5861 5863 5866 5868 5869 5869 5869 5868 5865 5863 5870 5871 5869 5869 5869 5868 5866 5865 5863 5862 5862 5861 5860 5859 5858 5857 5856 5855 5853 5852 5851 5849 5848 5850
5817 5822 5828 5832 5837 5841 5843 5846 5849 5851 5854 5856 5859 5860 5861 5862 5863 5863 5862 5862 5861 5861 5863 5862 5861 5859 5856 5855 5854 5853 5852 5851 5850 5849 5848 5848 5848 5846 5844 5844 5843 5842 5842 5842
5809 5815 5820 5825 5831 5835 5838 5840 5842 5844 5846 5849 5851 5853 5854 5854 5854 5854 5853 5853 5853 5853 5852 5850 5849 5847 5845 5845 5844 5842 5841 5840 5839 5838 5836 5836 5836 5836 5834 5833 5833 5833 5832 5832